Location: Maddington
(51.2000°N, 1.9167°W)
Time: 01:51:24
(UTC+00:00)

Cosmos 1544 - Pass Details

Date: 18 September 2020
Orbit: 471 x 491 km, 82.5° (Epoch: 30 October)

Event Time Altitude Azimuth Distance (km) Brightness Sun altitude
Rises 18:55:16 0° 194° (SSW) 2,556 6.8 -7.2°
Reaches altitude 10° 18:57:22 10° 197° (SSW) 1,677 5.9 -7.5°
Maximum altitude 19:01:02 71° 281° (WNW) 523 3.4 -8.1°
Drops below altitude 10° 19:04:42 10° 6° (N) 1,682 5.9 -8.7°
Sets 19:06:49 0° 9° (N) 2,564 6.8 -9.0°
